| time (UTC) | temp F | wind direction | speed MPH | gust MPH | rain 1hr in | rain 24hr in | rain mn in | humidity % | barometer mb |
| 20260504200502 | 48 | 314 | 5.0 | 9.0 | 0.00 | 0.00 | 0.00 | 77 | 1014.8 |
| 20260504200003 | 48 | 316 | 5.0 | 9.0 | 0.00 | 0.00 | 0.00 | 79 | 1015.1 |
| 20260504195502 | 48 | 296 | 7.0 | 8.0 | 0.00 | 0.00 | 0.00 | 78 | 1015.3 |
| 20260504195002 | 47 | 290 | 8.0 | 10.0 | 0.00 | 0.00 | 0.00 | 80 | 1015.3 |
| 20260504194503 | 47 | 292 | 10.0 | 11.0 | 0.00 | 0.00 | 0.00 | 80 | 1015.3 |
| 20260504194002 | 47 | 284 | 10.0 | 14.0 | 0.00 | 0.00 | 0.00 | 79 | 1015.2 |
| 20260504193502 | 47 | 264 | 10.0 | 13.0 | 0.00 | 0.00 | 0.00 | 79 | 1015.4 |
| 20260504193002 | 47 | 266 | 9.0 | 16.0 | 0.00 | 0.00 | 0.00 | 80 | 1015.4 |
| 20260504192003 | 46 | 247 | 9.0 | 14.0 | 0.00 | 0.00 | 0.00 | 83 | 1015.3 |
| 20260504191503 | 45 | 276 | 6.0 | 11.0 | 0.00 | 0.00 | 0.00 | 84 | 1015.4 |
| 20260504190502 | 46 | 257 | 5.0 | 9.0 | 0.00 | 0.00 | 0.00 | 82 | 1015.4 |
| 20260504190003 | 46 | 301 | 8.0 | 6.0 | 0.00 | 0.00 | 0.00 | 81 | 1015.4 |
| 20260504185502 | 46 | 266 | 8.0 | 15.0 | 0.00 | 0.00 | 0.00 | 79 | 1015.4 |
| 20260504185002 | 46 | 254 | 8.0 | 11.0 | 0.00 | 0.00 | 0.00 | 79 | 1015.3 |
| 20260504184503 | 46 | 257 | 8.0 | 12.0 | 0.00 | 0.00 | 0.00 | 79 | 1015.4 |
| 20260504184002 | 46 | 245 | 8.0 | 14.0 | 0.00 | 0.00 | 0.00 | 80 | 1015.3 |
| 20260504183003 | 45 | 255 | 7.0 | 15.0 | 0.00 | 0.00 | 0.00 | 79 | 1015.2 |
| 20260504182502 | 45 | 231 | 8.0 | 12.0 | 0.00 | 0.00 | 0.00 | 80 | 1015.3 |
| 20260504181503 | 45 | 242 | 8.0 | 14.0 | 0.00 | 0.00 | 0.00 | 79 | 1015.2 |
| 20260504180502 | 45 | 259 | 6.0 | 8.0 | 0.00 | 0.00 | 0.00 | 80 | 1015.2 |
| 20260504180004 | 45 | 257 | 7.0 | 7.0 | 0.00 | 0.00 | 0.00 | 79 | 1015.3 |
| 20260504175502 | 45 | 268 | 6.0 | 14.0 | 0.00 | 0.00 | 0.00 | 80 | 1015.3 |
| 20260504175003 | 46 | 256 | 5.0 | 11.0 | 0.00 | 0.00 | 0.00 | 80 | 1015.4 |
| 20260504174502 | 45 | 273 | 3.0 | 9.0 | 0.00 | 0.00 | 0.00 | 80 | 1015.5 |
| 20260504173502 | 45 | 285 | 6.0 | 7.0 | 0.00 | 0.00 | 0.00 | 80 | 1015.2 |
| 20260504173003 | 45 | 261 | 6.0 | 10.0 | 0.00 | 0.00 | 0.00 | 80 | 1015.1 |
| 20260504172502 | 45 | 240 | 7.0 | 9.0 | 0.00 | 0.00 | 0.00 | 80 | 1015.1 |
| 20260504172003 | 45 | 251 | 7.0 | 12.0 | 0.00 | 0.00 | 0.00 | 80 | 1015.1 |
| 20260504171502 | 45 | 252 | 5.0 | 12.0 | 0.00 | 0.00 | 0.00 | 80 | 1015.0 |
| 20260504171003 | 45 | 254 | 5.0 | 10.0 | 0.00 | 0.00 | 0.00 | 81 | 1014.9 |
| 20260504170503 | 44 | 261 | 7.0 | 9.0 | 0.00 | 0.00 | 0.00 | 81 | 1014.9 |
| 20260504151003 | 43 | 314 | 7.0 | 14.0 | 0.00 | 0.00 | 0.00 | 83 | 1014.9 |
| 20260504150502 | 43 | 321 | 5.0 | 13.0 | 0.00 | 0.00 | 0.00 | 83 | 1014.9 |
| 20260504141003 | 42 | 308 | 7.0 | 12.0 | 0.00 | 0.00 | 0.00 | 82 | 1014.5 |
| 20260504140502 | 43 | 316 | 7.0 | 12.0 | 0.00 | 0.00 | 0.00 | 82 | 1014.5 |
| 20260504130502 | 44 | 307 | 5.0 | 9.0 | 0.00 | 0.00 | 0.00 | 79 | 1014.0 |
| 20260504100503 | 45 | 299 | 3.0 | 7.0 | 0.00 | 0.00 | 0.00 | 78 | 1014.0 |
| 20260504082003 | 46 | 311 | 10.0 | 14.0 | 0.00 | 0.00 | 0.00 | 77 | 1014.3 |
| 20260504081502 | 46 | 316 | 9.0 | 15.0 | 0.00 | 0.00 | 0.00 | 76 | 1014.3 |
| 20260504081003 | 46 | 314 | 9.0 | 16.0 | 0.00 | 0.00 | 0.00 | 76 | 1014.4 |
| 20260504080504 | 46 | 315 | 8.0 | 13.0 | 0.00 | 0.00 | 0.00 | 76 | 1014.5 |
| 20260504050504 | 49 | 303 | 5.0 | 4.0 | 0.00 | 0.00 | 0.00 | 72 | 1014.3 |
| 20260504050005 | 50 | 310 | 4.0 | 9.0 | 0.00 | 0.00 | 0.00 | 72 | 1014.1 |
| 20260504045503 | 50 | 321 | 2.0 | 9.0 | 0.00 | 0.00 | 0.00 | 71 | 1014.0 |
| 20260504044003 | 50 | 321 | 2.0 | 6.0 | 0.00 | 0.00 | 0.00 | 71 | 1013.9 |
| 20260504043503 | 50 | 330 | 4.0 | 2.0 | 0.00 | 0.00 | 0.00 | 71 | 1013.8 |
| 20260504043003 | 50 | 279 | 5.0 | 9.0 | 0.00 | 0.00 | 0.00 | 71 | 1013.8 |
| 20260504042503 | 50 | 317 | 6.0 | 8.0 | 0.00 | 0.00 | 0.00 | 71 | 1013.6 |
| 20260504042004 | 50 | 307 | 8.0 | 13.0 | 0.00 | 0.00 | 0.00 | 71 | 1013.5 |
| 20260504041003 | 50 | 316 | 8.0 | 15.0 | 0.00 | 0.00 | 0.00 | 71 | 1013.3 |
| 20260504040503 | 51 | 313 | 7.0 | 12.0 | 0.00 | 0.00 | 0.00 | 71 | 1013.2 |
| 20260504040004 | 51 | 308 | 6.0 | 11.0 | 0.00 | 0.00 | 0.00 | 70 | 1013.2 |
| 20260504035003 | 52 | 299 | 6.0 | 8.0 | 0.00 | 0.00 | 0.00 | 69 | 1013.0 |
| 20260504034003 | 53 | 303 | 8.0 | 12.0 | 0.00 | 0.00 | 0.00 | 68 | 1012.9 |
| 20260504033504 | 53 | 291 | 11.0 | 12.0 | 0.00 | 0.00 | 0.00 | 67 | 1012.8 |
| 20260504033004 | 54 | 282 | 12.0 | 16.0 | 0.00 | 0.00 | 0.00 | 67 | 1012.7 |
| 20260504032503 | 54 | 288 | 10.0 | 16.0 | 0.00 | 0.00 | 0.00 | 67 | 1012.5 |
| 20260504031503 | 54 | 290 | 9.0 | 14.0 | 0.00 | 0.00 | 0.00 | 66 | 1012.3 |
| 20260504031003 | 55 | 287 | 9.0 | 13.0 | 0.00 | 0.00 | 0.00 | 66 | 1012.2 |
| 20260504030503 | 55 | 297 | 9.0 | 18.0 | 0.00 | 0.00 | 0.00 | 66 | 1012.3 |
| 20260504030003 | 55 | 291 | 10.0 | 14.0 | 0.00 | 0.00 | 0.00 | 66 | 1012.3 |
| 20260504025503 | 55 | 302 | 10.0 | 15.0 | 0.00 | 0.00 | 0.00 | 65 | 1012.0 |
| 20260504025004 | 56 | 299 | 10.0 | 14.0 | 0.00 | 0.00 | 0.00 | 65 | 1012.2 |
| 20260504023503 | 56 | 315 | 8.0 | 15.0 | 0.00 | 0.00 | 0.00 | 65 | 1012.0 |
| 20260504023004 | 56 | 286 | 8.0 | 12.0 | 0.00 | 0.00 | 0.00 | 64 | 1012.1 |
| 20260504022504 | 56 | 277 | 8.0 | 10.0 | 0.00 | 0.00 | 0.00 | 64 | 1012.2 |
| 20260504022003 | 56 | 302 | 8.0 | 16.0 | 0.00 | 0.00 | 0.00 | 64 | 1012.1 |
| 20260504021503 | 57 | 304 | 9.0 | 13.0 | 0.00 | 0.00 | 0.00 | 63 | 1011.9 |
| 20260504021003 | 57 | 306 | 9.0 | 12.0 | 0.00 | 0.00 | 0.00 | 63 | 1011.6 |
| 20260504020503 | 57 | 307 | 10.0 | 13.0 | 0.00 | 0.00 | 0.00 | 62 | 1011.4 |
| 20260504020004 | 58 | 305 | 11.0 | 13.0 | 0.00 | 0.00 | 0.00 | 62 | 1011.5 |
| 20260504015504 | 58 | 309 | 11.0 | 17.0 | 0.00 | 0.00 | 0.00 | 61 | 1011.7 |
| 20260504015004 | 58 | 308 | 10.0 | 14.0 | 0.00 | 0.00 | 0.00 | 61 | 1011.5 |
| 20260504014503 | 59 | 306 | 9.0 | 15.0 | 0.00 | 0.00 | 0.00 | 60 | 1011.6 |
| 20260504014003 | 59 | 309 | 9.0 | 12.0 | 0.00 | 0.00 | 0.00 | 59 | 1011.6 |
| 20260504013503 | 59 | 278 | 9.0 | 11.0 | 0.00 | 0.00 | 0.00 | 59 | 1011.6 |
| 20260504013003 | 60 | 283 | 9.0 | 15.0 | 0.00 | 0.00 | 0.00 | 59 | 1011.6 |
| 20260504012003 | 60 | 302 | 9.0 | 15.0 | 0.00 | 0.00 | 0.00 | 59 | 1011.6 |
| 20260504011504 | 60 | 314 | 9.0 | 18.0 | 0.00 | 0.00 | 0.00 | 58 | 1011.5 |
| 20260504011003 | 61 | 298 | 11.0 | 13.0 | 0.00 | 0.00 | 0.00 | 57 | 1011.6 |
| 20260504010503 | 61 | 280 | 10.0 | 14.0 | 0.00 | 0.00 | 0.00 | 57 | 1011.5 |
| 20260504010005 | 61 | 310 | 10.0 | 17.0 | 0.00 | 0.00 | 0.00 | 57 | 1011.6 |
| 20260504005504 | 61 | 298 | 10.0 | 12.0 | 0.00 | 0.00 | 0.00 | 57 | 1011.8 |
| 20260504005004 | 61 | 307 | 10.0 | 14.0 | 0.00 | 0.00 | 0.00 | 56 | 1011.7 |
| 20260504004503 | 61 | 304 | 10.0 | 15.0 | 0.00 | 0.00 | 0.00 | 57 | 1011.7 |
| 20260504004003 | 60 | 312 | 9.0 | 19.0 | 0.00 | 0.00 | 0.00 | 56 | 1011.6 |
| 20260504003503 | 61 | 316 | 10.0 | 14.0 | 0.00 | 0.00 | 0.00 | 56 | 1011.6 |
| 20260504003004 | 61 | 294 | 10.0 | 12.0 | 0.00 | 0.00 | 0.00 | 56 | 1011.5 |
| 20260504002003 | 62 | 291 | 9.0 | 16.0 | 0.00 | 0.00 | 0.00 | 56 | 1011.4 |
| 20260504001504 | 62 | 300 | 10.0 | 14.0 | 0.00 | 0.00 | 0.00 | 57 | 1011.4 |
| 20260504001003 | 61 | 309 | 11.0 | 16.0 | 0.00 | 0.00 | 0.00 | 57 | 1011.4 |
| 20260504000504 | 61 | 299 | 10.0 | 14.0 | 0.00 | 0.00 | 0.00 | 57 | 1011.3 |
| 20260504000003 | 62 | 299 | 11.0 | 14.0 | 0.00 | 0.00 | 0.00 | 56 | 1011.6 |
| 20260503235003 | 62 | 311 | 11.0 | 19.0 | 0.00 | 0.00 | 0.00 | 57 | 1011.7 |
| 20260503234503 | 61 | 320 | 10.0 | 16.0 | 0.00 | 0.00 | 0.00 | 57 | 1011.7 |
| 20260503234004 | 62 | 308 | 11.0 | 14.0 | 0.00 | 0.00 | 0.00 | 57 | 1011.7 |
| 20260503233503 | 62 | 308 | 12.0 | 16.0 | 0.00 | 0.00 | 0.00 | 57 | 1011.7 |
| 20260503233005 | 62 | 310 | 12.0 | 18.0 | 0.00 | 0.00 | 0.00 | 57 | 1011.7 |
| 20260503232503 | 62 | 301 | 13.0 | 19.0 | 0.00 | 0.00 | 0.00 | 56 | 1011.7 |
| 20260503232004 | 62 | 295 | 14.0 | 18.0 | 0.00 | 0.00 | 0.00 | 58 | 1011.7 |
| 20260503231504 | 62 | 318 | 13.0 | 19.0 | 0.00 | 0.00 | 0.00 | 58 | 1011.7 |
| 20260503231003 | 62 | 309 | 12.0 | 18.0 | 0.00 | 0.00 | 0.00 | 58 | 1011.6 |
| 20260503230504 | 62 | 306 | 12.0 | 17.0 | 0.00 | 0.00 | 0.00 | 58 | 1011.6 |
| 20260503230003 | 62 | 305 | 12.0 | 16.0 | 0.00 | 0.00 | 0.00 | 58 | 1011.8 |
| 20260503225504 | 62 | 311 | 12.0 | 16.0 | 0.00 | 0.00 | 0.00 | 56 | 1011.9 |
| 20260503225003 | 63 | 316 | 13.0 | 18.0 | 0.00 | 0.00 | 0.00 | 57 | 1011.9 |
| 20260503224503 | 63 | 317 | 14.0 | 18.0 | 0.00 | 0.00 | 0.00 | 57 | 1012.0 |
| 20260503224005 | 62 | 317 | 13.0 | 18.0 | 0.00 | 0.00 | 0.00 | 57 | 1011.9 |
| 20260503223503 | 63 | 318 | 12.0 | 19.0 | 0.00 | 0.00 | 0.00 | 56 | 1011.9 |
| 20260503223004 | 63 | 320 | 12.0 | 18.0 | 0.00 | 0.00 | 0.00 | 58 | 1012.0 |
| 20260503222503 | 62 | 319 | 13.0 | 18.0 | 0.00 | 0.00 | 0.00 | 59 | 1011.9 |
| 20260503222005 | 62 | 319 | 13.0 | 20.0 | 0.00 | 0.00 | 0.00 | 58 | 1012.0 |
| 20260503221503 | 62 | 320 | 12.0 | 22.0 | 0.00 | 0.00 | 0.00 | 57 | 1012.0 |
| 20260503221003 | 62 | 316 | 10.0 | 17.0 | 0.00 | 0.00 | 0.00 | 58 | 1012.1 |
| 20260503220504 | 62 | 307 | 12.0 | 16.0 | 0.00 | 0.00 | 0.00 | 58 | 1012.1 |
| 20260503220003 | 63 | 316 | 12.0 | 20.0 | 0.00 | 0.00 | 0.00 | 58 | 1012.2 |
| 20260503215504 | 62 | 317 | 12.0 | 20.0 | 0.00 | 0.00 | 0.00 | 59 | 1012.1 |
| 20260503215003 | 62 | 315 | 13.0 | 16.0 | 0.00 | 0.00 | 0.00 | 58 | 1012.2 |
| 20260503214503 | 62 | 319 | 13.0 | 19.0 | 0.00 | 0.00 | 0.00 | 59 | 1012.2 |
| 20260503214004 | 63 | 314 | 14.0 | 15.0 | 0.00 | 0.00 | 0.00 | 58 | 1012.1 |
| 20260503213503 | 62 | 315 | 15.0 | 24.0 | 0.00 | 0.00 | 0.00 | 59 | 1012.0 |
| 20260503213003 | 62 | 317 | 14.0 | 21.0 | 0.00 | 0.00 | 0.00 | 58 | 1012.1 |
| 20260503212505 | 63 | 313 | 15.0 | 18.0 | 0.00 | 0.00 | 0.00 | 57 | 1012.0 |
| 20260503212005 | 63 | 318 | 14.0 | 22.0 | 0.00 | 0.00 | 0.00 | 57 | 1012.1 |
| 20260503211006 | 64 | 319 | 12.0 | 21.0 | 0.00 | 0.00 | 0.00 | 56 | 1011.9 |
| 20260503210507 | 64 | 319 | 14.0 | 13.0 | 0.00 | 0.00 | 0.00 | 57 | 1011.9 |
| 20260503210006 | 63 | 317 | 15.0 | 19.0 | 0.00 | 0.00 | 0.00 | 56 | 1012.1 |
| 20260503205506 | 64 | 316 | 14.0 | 16.0 | 0.00 | 0.00 | 0.00 | 56 | 1012.2 |
| 20260503205006 | 64 | 314 | 12.0 | 21.0 | 0.00 | 0.00 | 0.00 | 57 | 1012.1 |
| 20260503204006 | 65 | 320 | 12.0 | 18.0 | 0.00 | 0.00 | 0.00 | 54 | 1012.2 |
| 20260503203505 | 64 | 320 | 10.0 | 18.0 | 0.00 | 0.00 | 0.00 | 54 | 1012.3 |
| 20260503203005 | 64 | 309 | 9.0 | 16.0 | 0.00 | 0.00 | 0.00 | 56 | 1012.3 |
| 20260503202006 | 64 | 317 | 10.0 | 18.0 | 0.00 | 0.00 | 0.00 | 54 | 1012.2 |
| 20260503201506 | 65 | 323 | 11.0 | 17.0 | 0.00 | 0.00 | 0.00 | 53 | 1012.3 |